Regional Weather Roundup
Issued by NWS Jackson, KY

Home | Current Version | Previous Version | Graphics & Text | Print | Product List | Glossary On
Versions: 1 2 3 4 5 6 7 8 9 10 11 12 13 14 15 16 17 18 19 20 21 22 23 24 25 26 27 28 29 30 31 32 33 34 35 36 37 38 39 40 41 42 43 44 45 46 47 48 49 50
000
ASUS43 KJKL 192310
RWRJKL

EAST KENTUCKY HOURLY WEATHER ROUNDUP
NATIONAL WEATHER SERVICE JACKSON KY
700 PM EDT SUN OCT 19 2014

NOTE: "FAIR" INDICATES FEW OR NO CLOUDS BELOW 12,000 FEET WITH
NO SIGNIFICANT WEATHER AND/OR OBSTRUCTIONS TO VISIBILITY.

* THESE REPORTS ARE NOT UNDER NWS QUALITY CONTROL AND MAY NOT
  REPORT WEATHER SUCH AS PRECIPITATION AND FOG.

KYZ079-080-083-085-087-088-110-112-115-119-120-200000
...EASTERN KENTUCKY...

CITY           SKY/WX    TMP DP  RH WIND       PRES   REMARKS
JACKSON        CLEAR     53  38  56 CALM      30.14S
LONDON         CLEAR     56  41  57 CALM      30.13S
SOMERSET*      CLEAR     54  41  62 N3        30.14R
MONTICELLO*    HAZE      53  45  74 CALM      30.14S VSB 1/2
WILLIAMSBURG*  CLEAR     54  43  66 CALM      30.12S
MIDDLESBORO*   CLEAR     54  45  70 CALM      30.13R
HARLAN APT*    CLEAR     54  37  54 NE5       30.13R
BLACK MTN*       N/A     45  39  81 CALM        N/A
PIKEVILLE APT* CLEAR     52  39  62 NE3       30.14S
BIG SANDY*     PTCLDY    52  39  61 E3        30.15R
MOREHEAD APT*  PTCLDY    54  41  62 CALM      30.15S
$$

KYZ035-036-041-042-044-050-067-078-099-200000
...CENTRAL KENTUCKY...

CITY           SKY/WX    TMP DP  RH WIND       PRES   REMARKS
MT STERLING*   CLEAR     54  41  62 CALM      30.15S
FLEMING/MASON* CLEAR     52  39  62 S5        30.15S
DANVILLE*      CLEAR     52  41  66 CALM      30.15R
RICHMOND*      CLEAR     55  37  50 CALM      30.13R
LEXINGTON      CLEAR     57  41  55 NE3       30.13S
FRANKFORT      PTCLDY    53  41  63 CALM      30.12S
$$

KYZ091>093-OHZ055-061-077-WVZ005-015-034-035-042-200000
...SOUTHERN OHIO/WEST VIRGINIA...

CITY           SKY/WX    TMP DP  RH WIND       PRES   REMARKS
COVINGTON      PTCLDY    52  39  61 S3        30.11F
COLUMBUS       CLOUDY    52  33  48 S3        30.10F
DAYTON         MOCLDY    51  35  54 SW5       30.10F
WILMINGTON     PTCLDY    50  36  58 SW5       30.11F HAZE
HUNTINGTON     MOCLDY    54  39  57 CALM      30.12F
CHARLESTON     MOCLDY    51  39  63 S5        30.13F
PINEVILLE*     PTCLDY    48  46  92 MISG      30.18R
BECKLEY        PTCLDY    47  36  65 N3        30.13S
BLUEFIELD      CLEAR     49  35  58 W6        30.14R
$$

VAZ002-007-008-TNZ017-027-036-066-071-200000
...SOUTHWEST VIRGINIA/EAST TENNESSEE...

CITY           SKY/WX    TMP DP  RH WIND       PRES   REMARKS
WISE*          CLEAR     46  36  66 N5        30.15R
JONESVILLE*    CLEAR     55  41  58 CALM      30.14S
ABINGDON*      CLEAR     53  40  61 N3        30.12S
BRISTOL        PTCLDY    56  39  53 CALM      30.12R
KNOXVILLE      PTCLDY    59  42  53 NE5       30.09S
OAK RIDGE      PTCLDY    58  45  62 CALM      30.12S
CROSSVILLE     PTCLDY    59  42  53 N6        30.12S
NASHVILLE      MOCLDY    60  45  57 CALM      30.12S
$$

...KEY TO REMARKS...
VSB - VISIBILITY IN MILES
WCI - WIND CHILL INDEX
HX  - HEAT INDEX

$$



USA.gov is the U.S. government's official web portal to all federal, state and local government web resources and services.